ATLAS 5 CENTAUR DEB, 43980

Orbit data source: Space-Track

ATLAS 5 CENTAUR DEB, 43980 is space debris in HEO originally from a launch on Wed, 17 Sep 2014 UTC launched from the Air Force Eastern Test Range (AFETR). Debris objects in space refer to the collection of defunct objects orbiting the Earth. Examples of debris include non-operational satellites, rocket bodies, and fragments generated from explosions, collisions, or faulty payload assembly.

Loading next visibility...
Identifier
43980, 2014-055AK
Orbit
HEO
Country
Flag of USUS
Related business
Flag of USUnited Launch Alliance/Lockheed Martin (US)
Manufacturer
Unknown
Mission
Spacecraft
Bus & Motor
Unknown
Mass
Unknown
Launch date (UTC)
2014-09-17 (12 years ago)
Launch vehicle
Unknown
Launch site
Air Force Eastern Test Range (AFETR)
Object type
Payload
Rocket body
Debris
Shape & HBR
Unknown shape, 1.1 m
Radar Cross Section
Medium (>0.1 m² and <1 m²)

Expand to show TLE details & history
Last TLE update: 18 hours ago

TLE from 18 hours ago
0 ATLAS 5 CENTAUR DEB
1 43980U 14055AK  26119.32146551 -.00000005  00000-0  00000+0 0  9990
2 43980  19.8530 151.6146 4783927 146.9337 255.0911  1.83782158 51281
Epoch: 2026-04-29T07:42Z
TLE epoch observation values (Epoch: 2026-04-29T07:42:54.620Z)
Latitude
-0.00004°
Longitude
178.6761°
Altitude
29,827.631 km
Speed
2.804 km/s
True Right ascension
10h 06m 45s
True Declination
0° 00' 00"
Sunlit
Object was in daylight at epoch
Visualization orbit readout
Latitude
Unknown
Longitude
Unknown
Altitude
Unknown
Speed
Unknown
Apparent Right ascension
Unknown
Apparent Declination
Unknown
Sunlit
N/A
Visualization observer readout
Local Sidereal Time
09:32:29
Azimuth
Unknown
Elevation
Unknown
Doppler factor
Unknown
Orbital elements
Apogee altitude
35,246.695 km
Perigee altitude
8,307.958 km
Semi-major axis
28,155.463 km
Eccentricity
0.47839
Inclination
19.853°
RAAN
151.6146°
Arg. of periapsis
146.9337°
True anomaly
213.0997°
Mean anomaly
255.0911°
Eccentric anomaly
233.15582°
Mean motion
0.45941 °/min
Orbital period
783.62 mins
BSTAR
0
Loading maneuver chart data...
Computing Atmospheric mass density...

Documentation

Showing up to 5 results
|